Regional Weather Roundup
Issued by NWS

Home | Current Version | Previous Version | Text Only | Print | Product List | Glossary On
Versions: 1 2 3 4 5 6 7 8 9 10 11 12 13 14 15 16 17 18 19 20 21 22 23 24 25 26 27 28 29 30 31 32 33 34 35 36 37 38 39 40 41 42 43 44 45 46 47 48 49 50
000
ASUS43 KDTX 300510
RWRMI
MICHIGAN HOURLY REGIONAL WEATHER ROUNDUP
NATIONAL WEATHER SERVICE DETROIT/PONTIAC MI
100 AM EDT SUN AUG 30 2015

NOTE: "FAIR" INDICATES FEW OR NO CLOUDS BELOW 12,000 FEET WITH NO
SIGNIFICANT WEATHER AND/OR OBSTRUCTION TO VISIBILITY.

MIZ047>049-052>055-059>063-066>070-074>076-081>083-300600-
SOUTHEAST LOWER MICHIGAN

CITY           SKY/WX    TMP DP  RH WIND       PRES   REMARKS
ADRIAN         CLOUDY    68  66  93 S5        30.08S FOG
ALMA           CLOUDY    64  64  99 CALM      30.07F FOG
ANN ARBOR      LGT RAIN  67  65  93 CALM      30.07S
BAD AXE        CLOUDY    63  63  99 CALM      30.09S FOG
DETROIT CITY   CLOUDY    68  65  90 E6        30.07F
DETROIT        CLOUDY    69  64  84 CALM      30.07F
FLINT          CLOUDY    68  64  87 CALM      30.07S FOG
GROSSE ILE     CLOUDY    70  64  83 CALM      30.06S
HILLSDALE      CLOUDY    67  66  97 S5        30.07F
HOWELL         CLOUDY    66  66  99 SE5       30.06F FOG

CITY           SKY/WX    TMP DP  RH WIND       PRES   REMARKS
JACKSON        CLOUDY    67  66  97 S7        30.06S FOG
LAMBERTVILLE   LGT RAIN  69  66  90 CALM      30.07F
LANSING        CLOUDY    66  64  93 NE5       30.06F
LAPEER         NOT AVBL
MASON          CLOUDY    66  64  90 CALM      30.06S FOG
MONROE         LGT RAIN  66  65  96 CALM      30.06S
MT. CLEMENS    CLOUDY    66  66 100 E3        30.05F
PONTIAC        CLOUDY    65  64  97 CALM      30.07S FOG
PORT HOPE        N/A     64  63  96 CALM      30.06F
PORT HURON     LGT RAIN  64  64 100 CALM      30.08F
TRI CITIES     CLOUDY    66  63  90 NE3       30.07F FOG
YPSILANTI      CLOUDY    69  65  86 CALM      30.07F FOG
$$
MIZ043>046-050>051-056>058-064>065-071>073-077>080-300600-
SOUTHWEST LOWER MICHIGAN

CITY           SKY/WX    TMP DP  RH WIND       PRES   REMARKS
BATTLE CREEK   CLOUDY    68  65  90 S3        30.05S
BENTON HARBOR  CLOUDY    68  66  93 CALM      30.02S FOG
BIG RAPIDS     CLOUDY    63  62  97 CALM      30.06F FOG
COLDWATER      CLOUDY    67  66  97 SE6       30.05S
HOLLAND        CLOUDY    68  65  90 E5        30.03F FOG
GRAND RAPIDS   CLOUDY    66  65  96 NE5       30.05S FOG
KALAMAZOO      CLOUDY    67  64  90 CALM      30.04F FOG
MARSHALL       CLOUDY    67  66  94 SE3       30.05R
MUSKEGON       CLOUDY    66  63  90 E5        30.04F FOG
$$
MIZ016>042-300600-
NORTHERN LOWER MICHIGAN

CITY           SKY/WX    TMP DP  RH WIND       PRES   REMARKS
ALPENA         CLEAR     56  54  93 CALM      30.07F
BEAVER ISLAND  FOG       56  56  97 CALM      30.05F VSB 1/2
BELLAIRE       FOG       57  56  95 CALM      30.07R VSB 1
CADILLAC       FOG       56  55  97 CALM      30.08S VSB 1
CHARLEVOIX     CLEAR     59  58  99 CALM      30.08F FOG
FRANKFORT      CLEAR     57  56  97 CALM      30.06F FOG
GAYLORD        CLEAR     58  58 100 CALM      30.08F FOG
GRAYLING       FOG       55  52  91 CALM      30.09S VSB 1/4
HARBOR SPRINGS CLEAR     58  57  97 CALM      30.06S
HOUGHTON LAKE  FOG       53  53 100 CALM      30.09S VSB 1/2
MANISTEE       CLOUDY    64  59  82 CALM      30.07S
OSCODA         FOG       56  55  98 CALM      30.06F VSB 3/4
PELLSTON       FOG       54  53  97 W3        30.06F VSB 3/4
TRAVERSE CITY  PTCLDY    64  61  90 S3        30.06S
$$
MIZ007>008-015-300600-
EASTERN UPPER MICHIGAN

CITY           SKY/WX    TMP DP  RH WIND       PRES   REMARKS
KINROSS        MOCLDY    61  61 100 S5        30.05S
MACKINAC ISLAN CLEAR     62  60  94 S6        30.05S
NEWBERRY       CLOUDY    60  60  99 SW7       30.04S FOG
S. S. MARIE    CLOUDY    61  59  93 CALM      30.04F
$$
MIZ004>006-011>014-085-300600-
CENTRAL UPPER MICHIGAN

CITY           SKY/WX    TMP DP  RH WIND       PRES   REMARKS
MANISTIQUE     CLEAR     61  60  96 SW5       30.03S
ESCANABA       CLEAR     61  57  88 SW5       30.03S
MENOMINEE      CLEAR     61  55  82 SW6       30.04S
SAWYER-GWINN   CLEAR     62  59  91 S8        30.02
$$
MIZ001>003-009>011-084-300600-
WESTERN UPPER MICHIGAN

CITY           SKY/WX    TMP DP  RH WIND       PRES   REMARKS
IRON MOUNTAIN  CLEAR     60  58  92 S3        30.03S
HOUGHTON       CLOUDY    61  58  90 NE3       29.99S
IRONWOOD       MOCLDY    63  63 100 S3        29.98F
$$

ABBREVIATIONS USED IN REMARKS
   TC - TEMPERATURE IN CELSIUS
  WCI - WIND CHILL INDEX
   HX - HEAT INDEX
  VSB - VISIBILITY



USA.gov is the U.S. government's official web portal to all federal, state and local government web resources and services.